Weather History for PABL - December, 2013

Change the Weather History Date:

Monday, December 30, 2013

  Actual Average (PASK) Record (PASK)
Temperature  
Mean Temperature 9 °F -  
Max Temperature 12 °F 0 °F 33 °F (2014)
Min Temperature 6 °F -11 °F -45 °F (1999)
Degree Days  
Heating Degree Days 56    
Moisture  
Dew Point 1 °F    
Average Humidity 69    
Maximum Humidity 79    
Minimum Humidity 62    
Precipitation  
Precipitation 0.00 in - - ()
Sea Level Pressure  
Sea Level Pressure 29.78 in    
Wind  
Wind Speed 13 mph (SE)    
Max Wind Speed 23 mph    
Max Gust Speed 29 mph    
Visibility 10 miles    
Events      
Averages and records for this station are not official NWS values.
T = Trace of Precipitation, MM = Missing Value Source: NWS Daily Summary

Daily Weather History Graph

Daily Weather History Graph

Search for Another Location

Airport or City:

Trip Planner

Search our weather history database for the weather conditions in past years. The results will help you decide how hot, cold, wet, or windy it might be!

Date:

Astronomy

Dec. 30, 2013 Rise Set
Actual Time 12:14 PM AKST 3:20 PM AKST
Civil Twilight 10:38 AM AKST 4:56 PM AKST
Nautical Twilight 9:22 AM AKST 6:12 PM AKST
Astronomical Twilight 8:17 AM AKST 7:17 PM AKST
Moon 9:37 AM AKST (12/30) 2:43 PM AKST (12/30)
Length of Visible Light 6h 18m
Length of Day
3h 06m
Waning Crescent, 4% of the Moon is Illuminated
Dec 30
Waning Crescent
Jan 1
New
Jan 7
First Quarter
Jan 15
Full
Jan 23
Last Quarter

Hourly Weather History & Observations

Time (AKST) Temp. Windchill Dew Point Humidity Pressure Visibility Wind Dir Wind Speed Gust Speed Precip Events Conditions
12:16 AM 12.2 °F -0.2 °F 6.8 °F 79% 29.87 in 10.0 mi SE 9.2 mph - N/A   Mostly Cloudy
12:36 AM 12.2 °F -7.1 °F 6.8 °F 79% 29.85 in 10.0 mi ESE 23.0 mph 28.8 mph N/A   Overcast
12:56 AM 12.2 °F -4.3 °F 6.8 °F 79% 29.85 in 10.0 mi SE 16.1 mph 27.6 mph N/A   Overcast
1:16 AM 12.2 °F -0.2 °F 6.8 °F 79% 29.87 in 10.0 mi SE 9.2 mph - N/A   Mostly Cloudy
1:36 AM 12.2 °F 1.7 °F 6.8 °F 79% 29.87 in 10.0 mi East 6.9 mph 18.4 mph N/A   Partly Cloudy
1:56 AM 12.2 °F -5.8 °F 6.8 °F 79% 29.86 in 10.0 mi SE 19.6 mph 24.2 mph N/A   Mostly Cloudy
2:16 AM 12.2 °F -5.3 °F 5.0 °F 73% 29.86 in 10.0 mi SE 18.4 mph 24.2 mph N/A   Overcast
2:36 AM 12.2 °F -4.8 °F 5.0 °F 73% 29.85 in 10.0 mi ESE 17.3 mph 21.9 mph N/A   Overcast
2:56 AM 12.2 °F -5.8 °F 5.0 °F 73% 29.85 in 10.0 mi ESE 19.6 mph 28.8 mph N/A   Overcast
3:16 AM 12.2 °F -4.8 °F 5.0 °F 73% 29.84 in 10.0 mi ESE 17.3 mph 27.6 mph N/A   Overcast
3:36 AM 12.2 °F -3.1 °F 5.0 °F 73% 29.86 in 10.0 mi East 13.8 mph - N/A   Overcast
3:56 AM 12.2 °F -4.3 °F 3.2 °F 67% 29.85 in 10.0 mi SE 16.1 mph 21.9 mph N/A   Overcast
4:16 AM 12.2 °F -3.7 °F 3.2 °F 67% 29.86 in 10.0 mi SE 15.0 mph - N/A   Scattered Clouds
4:36 AM 10.4 °F -3.3 °F 3.2 °F 73% 29.85 in 10.0 mi ESE 10.4 mph - N/A   Clear
4:56 AM 10.4 °F -4.1 °F 3.2 °F 73% 29.84 in 10.0 mi ESE 11.5 mph 17.3 mph N/A   Clear
5:16 AM 10.4 °F -7.7 °F 3.2 °F 73% 29.83 in 10.0 mi SE 18.4 mph - N/A   Clear
5:36 AM 12.2 °F -3.1 °F 3.2 °F 67% 29.82 in 10.0 mi ESE 13.8 mph 24.2 mph N/A   Clear
5:56 AM 10.4 °F -4.8 °F 3.2 °F 73% 29.82 in 10.0 mi SE 12.7 mph - N/A   Clear
6:16 AM 12.2 °F -4.8 °F 3.2 °F 67% 29.81 in 10.0 mi ESE 17.3 mph - N/A   Clear
6:36 AM 10.4 °F -6.0 °F 3.2 °F 73% 29.81 in 10.0 mi SE 15.0 mph 18.4 mph N/A   Clear
6:56 AM 10.4 °F -6.0 °F 3.2 °F 73% 29.81 in 10.0 mi ESE 15.0 mph - N/A   Clear
7:16 AM 10.4 °F -5.4 °F 1.4 °F 67% 29.81 in 10.0 mi ESE 13.8 mph 18.4 mph N/A   Clear
7:36 AM 10.4 °F -1.5 °F 1.4 °F 67% 29.81 in 10.0 mi SE 8.1 mph - N/A   Clear
7:56 AM 10.4 °F -3.3 °F 1.4 °F 67% 29.80 in 10.0 mi SE 10.4 mph - N/A   Clear
8:16 AM 10.4 °F -4.8 °F -0.4 °F 62% 29.79 in 10.0 mi SE 12.7 mph - N/A   Clear
8:36 AM 10.4 °F -4.1 °F 1.4 °F 67% 29.79 in 10.0 mi SE 11.5 mph 17.3 mph N/A   Clear
8:56 AM 8.6 °F -6.3 °F -0.4 °F 67% 29.78 in 10.0 mi SE 11.5 mph - N/A   Clear
9:16 AM 10.4 °F -3.3 °F -0.4 °F 62% 29.78 in 10.0 mi SE 10.4 mph - N/A   Clear
9:36 AM 10.4 °F -7.7 °F 3.2 °F 73% 29.77 in 10.0 mi ESE 18.4 mph 23.0 mph N/A   Clear
9:56 AM 8.6 °F -7.0 °F 1.4 °F 73% 29.78 in 10.0 mi ESE 12.7 mph - N/A   Clear
10:16 AM 8.6 °F -7.7 °F -0.4 °F 67% 29.77 in 10.0 mi ESE 13.8 mph 17.3 mph N/A   Clear
10:36 AM 8.6 °F -7.0 °F -0.4 °F 67% 29.77 in 10.0 mi SE 12.7 mph - N/A   Clear
10:56 AM 8.6 °F -7.7 °F -0.4 °F 67% 29.77 in 10.0 mi SSE 13.8 mph - N/A   Clear
11:16 AM 8.6 °F -7.7 °F 1.4 °F 73% 29.77 in 10.0 mi SE 13.8 mph - N/A   Clear
11:36 AM 8.6 °F -5.5 °F -0.4 °F 67% 29.77 in 10.0 mi SSE 10.4 mph - N/A   Clear
11:56 AM 8.6 °F -3.7 °F -0.4 °F 67% 29.77 in 10.0 mi SSE 8.1 mph - N/A   Clear
12:16 PM 8.6 °F 2.0 °F -0.4 °F 67% 29.77 in 10.0 mi ESE 3.5 mph - N/A   Clear
12:36 PM 8.6 °F 0.1 °F -0.4 °F 67% 29.77 in 10.0 mi SE 4.6 mph - N/A   Clear
12:56 PM 8.6 °F -6.3 °F -0.4 °F 67% 29.76 in 10.0 mi SE 11.5 mph - N/A   Partly Cloudy
1:16 PM 8.6 °F -8.9 °F -0.4 °F 67% 29.75 in 10.0 mi ESE 16.1 mph - N/A   Clear
1:36 PM 10.4 °F -7.2 °F 1.4 °F 67% 29.76 in 10.0 mi ESE 17.3 mph - N/A   Clear
1:56 PM 10.4 °F -3.3 °F 1.4 °F 67% 29.76 in 10.0 mi SE 10.4 mph 17.3 mph N/A   Mostly Cloudy
2:16 PM 8.6 °F -1.3 °F 1.4 °F 73% 29.76 in 10.0 mi South 5.8 mph - N/A   Mostly Cloudy
2:36 PM 10.4 °F -1.5 °F 1.4 °F 67% 29.76 in 10.0 mi East 8.1 mph - N/A   Mostly Cloudy
2:56 PM 8.6 °F -5.5 °F 1.4 °F 73% 29.74 in 10.0 mi SE 10.4 mph - N/A   Overcast
3:16 PM 8.6 °F -8.3 °F -0.4 °F 67% 29.74 in 10.0 mi SE 15.0 mph - N/A   Mostly Cloudy
3:36 PM 10.4 °F -7.7 °F 1.4 °F 67% 29.73 in 10.0 mi ESE 18.4 mph 25.3 mph N/A   Mostly Cloudy
3:56 PM 8.6 °F -11.0 °F 1.4 °F 73% 29.72 in 10.0 mi SE 20.7 mph - N/A   Clear
4:16 PM 8.6 °F -7.0 °F -2.2 °F 62% 29.74 in 10.0 mi SE 12.7 mph - N/A   Clear
4:36 PM 8.6 °F -7.7 °F -0.4 °F 67% 29.74 in 10.0 mi SE 13.8 mph - N/A   Clear
4:56 PM 8.6 °F -6.3 °F -2.2 °F 62% 29.74 in 10.0 mi ESE 11.5 mph - N/A   Clear
5:16 PM 6.8 °F -12.9 °F -0.4 °F 72% 29.73 in 10.0 mi ESE 19.6 mph - N/A   Clear
5:36 PM 8.6 °F -7.0 °F -2.2 °F 62% 29.74 in 10.0 mi ESE 12.7 mph 20.7 mph N/A   Clear
5:56 PM 6.8 °F -10.0 °F -0.4 °F 72% 29.74 in 10.0 mi SE 13.8 mph - N/A   Clear
6:16 PM 6.8 °F -10.0 °F -0.4 °F 72% 29.73 in 10.0 mi SE 13.8 mph 21.9 mph N/A   Clear
6:36 PM 6.8 °F -9.3 °F -2.2 °F 67% 29.73 in 10.0 mi SE 12.7 mph - N/A   Clear
6:56 PM 6.8 °F -10.0 °F -2.2 °F 67% 29.73 in 10.0 mi SE 13.8 mph 19.6 mph N/A   Clear
7:16 PM 8.6 °F -5.5 °F -0.4 °F 67% 29.73 in 10.0 mi SE 10.4 mph 18.4 mph N/A   Clear
7:36 PM 6.8 °F -8.6 °F -0.4 °F 72% 29.73 in 10.0 mi SE 11.5 mph 18.4 mph N/A   Clear
7:56 PM 6.8 °F - -0.4 °F 72% 29.74 in 10.0 mi Calm Calm - N/A   Clear
8:16 PM 6.8 °F -7.8 °F -2.2 °F 67% 29.74 in 10.0 mi SSE 10.4 mph - N/A   Clear
8:36 PM 6.8 °F -2.0 °F -2.2 °F 67% 29.74 in 10.0 mi SSW 4.6 mph - N/A   Clear
8:56 PM 6.8 °F -2.0 °F -2.2 °F 67% 29.74 in 10.0 mi SE 4.6 mph - N/A   Clear
9:16 PM 8.6 °F -7.7 °F -0.4 °F 67% 29.73 in 10.0 mi ESE 13.8 mph 17.3 mph N/A   Clear
9:36 PM 6.8 °F -10.0 °F -0.4 °F 72% 29.73 in 10.0 mi ESE 13.8 mph - N/A   Clear
9:56 PM 6.8 °F -10.0 °F -2.2 °F 67% 29.74 in 10.0 mi SE 13.8 mph - N/A   Clear
10:16 PM 8.6 °F -7.0 °F -2.2 °F 62% 29.74 in 10.0 mi SE 12.7 mph 18.4 mph N/A   Clear
10:36 PM 6.8 °F -10.0 °F -2.2 °F 67% 29.74 in 10.0 mi SE 13.8 mph - N/A   Clear
10:56 PM 6.8 °F -8.6 °F -0.4 °F 72% 29.74 in 10.0 mi SE 11.5 mph - N/A   Clear
11:16 PM 6.8 °F -8.6 °F -2.2 °F 67% 29.75 in 10.0 mi SE 11.5 mph - N/A   Partly Cloudy
11:36 PM 6.8 °F -7.8 °F -2.2 °F 67% 29.75 in 10.0 mi ESE 10.4 mph - N/A   Clear
11:56 PM 6.8 °F -10.0 °F -2.2 °F 67% 29.75 in 10.0 mi ESE 13.8 mph - N/A   Clear